EW3292 Weather Reports


Display with metric or nautical units.
time (UTC)temp
F
wind
direction
speed
MPH
gust
MPH
rain 1hr
in
rain 24hr
in
rain mn
in
humidity
%
barometer
mb
20210625034551 84 133 0.0 2.0 0.00 0.00 0.00 82 1011.4
20210625033103 84 140 0.0 2.0 0.00 0.00 0.00 82 1011.3
20210625031620 83 136 0.0 4.0 0.00 0.00 0.00 82 1011.0
20210625030040 83 130 1.0 3.0 0.00 0.00 0.00 82 1011.1
20210625024524 83 126 1.0 2.0 0.00 0.00 0.00 83 1011.0
20210625023034 84 113 0.0 2.0 0.00 0.00 0.00 82 1010.8
20210625021532 84 113 1.0 2.0 0.00 0.00 0.00 81 1010.8
20210625020033 85 113 1.0 2.0 0.00 0.00 0.00 80 1010.7
20210625014531 86 113 1.0 2.0 0.00 0.00 0.00 78 1010.8
20210625013057 87 113 0.0 2.0 0.00 0.00 0.00 77 1010.9
20210625011549 88 113 1.0 2.0 0.00 0.00 0.00 75 1011.0
20210625010022 90 113 0.0 2.0 0.00 0.00 0.00 71 1010.9
20210625004549 92 122 0.0 2.0 0.00 0.00 0.00 67 1010.9
20210625003104 93 122 1.0 2.0 0.00 0.00 0.00 64 1010.9
20210625001525 94 115 0.0 3.0 0.00 0.00 0.00 61 1010.8
20210625000019 95 130 1.0 3.0 0.00 0.00 0.00 61 1010.8
20210624234527 96 129 0.0 3.0 0.00 0.00 0.00 63 1010.8
20210624233028 96 109 1.0 3.0 0.00 0.00 0.00 58 1010.8
20210624231526 96 143 0.0 2.0 0.00 0.00 0.00 60 1010.8
20210624230116 97 131 0.0 3.0 0.00 0.00 0.00 58 1011.0
20210624224620 97 216 0.0 3.0 0.00 0.00 0.00 59 1011.1
20210624223033 96 134 0.0 2.0 0.00 0.00 0.00 61 1011.3
20210624221538 96 221 1.0 6.0 0.00 0.00 0.00 59 1011.6
20210624220028 97 146 0.0 2.0 0.00 0.00 0.00 57 1011.7
20210624214518 96 237 0.0 4.0 0.00 0.00 0.00 59 1011.8
20210624213010 97 130 0.0 4.0 0.00 0.00 0.00 58 1012.0
20210624211531 96 151 2.0 8.0 0.00 0.00 0.00 61 1012.2
20210624210006 96 198 0.0 2.0 0.00 0.00 0.00 59 1012.1
20210624204508 96 213 0.0 6.0 0.00 0.00 0.00 59 1012.2
20210624203004 95 256 2.0 7.0 0.00 0.00 0.00 64 1012.3
20210624201502 95 267 2.0 6.0 0.00 0.00 0.00 60 1012.6
20210624200002 96 126 1.0 3.0 0.00 0.00 0.00 62 1012.6
20210624194514 96 120 0.0 3.0 0.00 0.00 0.00 62 1012.8
20210624193016 95 157 0.0 4.0 0.00 0.00 0.00 61 1013.1
20210624191809 95 189 1.0 4.0 0.00 0.00 0.00 63 1013.1
20210624190157 94 153 2.0 8.0 0.00 0.00 0.00 63 1013.3
20210624184724 94 223 0.0 7.0 0.00 0.00 0.00 65 1013.5
20210624183121 94 219 1.0 5.0 0.00 0.00 0.00 64 1013.7
20210624181818 93 153 0.0 7.0 0.00 0.00 0.00 67 1013.9
20210624180134 92 172 0.0 7.0 0.00 0.00 0.00 67 1014.0
20210624174716 91 261 1.0 5.0 0.00 0.00 0.00 69 1014.2
20210624173148 91 124 1.0 10.0 0.00 0.00 0.00 69 1014.2
20210624171558 92 235 1.0 7.0 0.00 0.00 0.00 68 1014.1
20210624170211 91 248 2.0 4.0 0.00 0.00 0.00 70 1014.2
20210624164623 90 128 2.0 8.0 0.00 0.00 0.00 71 1014.1
20210624163108 89 147 2.0 7.0 0.00 0.00 0.00 74 1014.2
20210624161615 87 159 1.0 7.0 0.00 0.00 0.00 77 1014.2
20210624160108 87 294 3.0 7.0 0.00 0.00 0.00 74 1014.3
20210624154539 87 213 2.0 9.0 0.00 0.00 0.00 74 1014.5
20210624153037 86 169 1.0 3.0 0.00 0.00 0.00 78 1014.4
20210624151532 85 24 3.0 11.0 0.00 0.00 0.00 77 1014.4
20210624150040 86 190 1.0 3.0 0.00 0.00 0.00 82 1014.3
20210624144513 84 157 2.0 7.0 0.00 0.00 0.00 84 1014.4
20210624143023 83 198 1.0 10.0 0.00 0.00 0.00 82 1014.6
20210624141535 83 169 1.0 5.0 0.00 0.00 0.00 83 1014.7
20210624140027 83 212 1.0 5.0 0.00 0.00 0.00 86 1014.6
20210624134505 82 165 1.0 7.0 0.00 0.00 0.00 89 1014.6
20210624133007 81 177 1.0 6.0 0.00 0.00 0.00 90 1014.5
20210624131655 80 205 1.0 4.0 0.00 0.00 0.00 91 1014.6
20210624130255 80 66 0.0 3.0 0.00 0.00 0.00 91 1014.8
20210624124617 80 225 0.0 4.0 0.00 0.00 0.00 92 1014.8
20210624123222 79 200 0.0 3.0 0.00 0.00 0.00 92 1014.5
20210624121642 79 190 0.0 7.0 0.00 0.00 0.00 92 1014.7
20210624120144 79 247 1.0 6.0 0.00 0.00 0.00 91 1014.5
20210624114656 79 209 0.0 2.0 0.00 0.00 0.00 91 1014.3
20210624113200 79 222 0.0 2.0 0.00 0.00 0.00 91 1014.3
20210624111711 79 222 0.0 2.0 0.00 0.00 0.00 91 1014.2
20210624110114 79 165 0.0 5.0 0.00 0.00 0.00 91 1013.9
20210624104735 79 192 0.0 3.0 0.00 0.00 0.00 90 1013.8
20210624103302 80 188 0.0 2.0 0.00 0.00 0.00 90 1013.7
20210624101629 80 188 0.0 1.0 0.00 0.00 0.00 90 1013.5
20210624100117 80 188 0.0 2.0 0.00 0.00 0.00 90 1013.5
20210624094615 80 188 0.0 2.0 0.00 0.00 0.00 90 1013.6
20210624093047 80 228 0.0 3.0 0.00 0.00 0.00 91 1013.3
20210624091633 80 220 0.0 3.0 0.00 0.00 0.00 91 1013.3
20210624090044 80 211 0.0 4.0 0.00 0.00 0.00 91 1013.2
20210624084554 80 168 0.0 3.0 0.00 0.00 0.00 91 1013.1
20210624083131 80 191 1.0 3.0 0.00 0.00 0.00 91 1013.1
20210624081616 80 159 0.0 3.0 0.00 0.00 0.00 91 1013.0
20210624080132 80 118 0.0 3.0 0.00 0.00 0.00 91 1013.0
20210624074609 80 132 0.0 2.0 0.00 0.00 0.00 91 1013.0
20210624073114 80 135 0.0 2.0 0.00 0.00 0.00 90 1013.0
20210624071551 80 144 1.0 3.0 0.00 0.00 0.00 90 1013.1
20210624070050 81 169 1.0 2.0 0.00 0.00 0.00 89 1013.1
20210624064538 81 127 1.0 4.0 0.00 0.00 0.00 89 1013.2
20210624063035 81 151 2.0 6.0 0.00 0.00 0.00 88 1013.3
20210624061600 81 101 0.0 4.0 0.00 0.00 0.00 87 1013.3
20210624060035 81 138 0.0 6.0 0.00 0.00 0.00 86 1013.3
20210624054532 82 140 1.0 6.0 0.00 0.00 0.00 86 1013.3
20210624053121 82 117 1.0 8.0 0.00 0.00 0.00 85 1013.2
20210624051528 82 108 1.0 7.0 0.00 0.00 0.00 85 1013.2
20210624050020 82 116 1.0 4.0 0.00 0.00 0.00 84 1013.2
20210624044528 82 87 1.0 10.0 0.00 0.00 0.00 84 1013.1
20210624043017 83 135 1.0 4.0 0.00 0.00 0.00 83 1013.1
20210624041521 83 121 1.0 3.0 0.00 0.00 0.00 83 1013.1
20210624040019 83 105 0.0 2.0 0.00 0.00 0.00 83 1013.0